Location: Glendale
(37.4556°N, 88.6714°W)
Time: 19:31:38
(UTC+00:00)

CSL-04 Debris - Pass Details

Date: 08 December 2019
Orbit: 827 x 848 km, 99.0° (Epoch: 24 January)

Event Time Altitude Azimuth Distance (km) Brightness Sun altitude
Rises 00:10:26 0° 155° (SSE) 3,392 7.2 -18.1°
Reaches altitude 10° 00:12:49 10° 151° (SSE) 2,458 6.5 -18.6°
Maximum altitude 00:18:11 60° 73° (ENE) 956 4.1 -19.6°
Drops below altitude 10° 00:23:32 10° 354° (N) 2,460 6.5 -20.7°
Sets 00:25:55 0° 351° (N) 3,395 7.3 -21.1°
